WXM80 ListenWXM80 Stop

You find our weather info also at:

UK Metoffice

WeatherCloud

Weather Underground

Northeastern Weather Network

AWEKAS

Citizen Weather Observer Program (CWOP)

HAMweather, WeatherForYou, PWS Weather


Weather Underground History page Text

Daily Summary for Nil La, TWC- Units:  Metric    English   Both
« Previous Day
Next Day »
Daily Weekly Monthly Yearly Custom
  High: Low: Average:
Temperature: 4 °C 1 °C 1.6 °C
Dew Point: -1.7 °C -3.8 °C -2.9 °C
Humidity: 76 % 65 % 72 %
Wind Speed: 15.3 km/h 0.3 km/h 6.6 km/h
Wind Gust: 25.9 km/h - -
Wind:- - NW
Pressure: 1019.5 hPa 1012.8 hPa -
Precipitation: 0 mm    
Historical Graphs
 
 
Tabular Data for Nil La, TWC-
Time Temperature Dew Point Pressure Wind Wind Speed Wind Gust Humidity Rainfall Rate (Hourly)
00:04 1.5 °C -3 °C 1012.8 hPa NW 8 km/h 20.4 km/h 72 % 0 mm
00:09 1.5 °C -3 °C 1013.1 hPa WNW 9.7 km/h 18.5 km/h 72 % 0 mm
00:14 1.4 °C -3.1 °C 1013.1 hPa WNW 4.8 km/h 13 km/h 72 % 0 mm
00:19 1.4 °C -2.9 °C 1013.1 hPa West 10.8 km/h 24.1 km/h 73 % 0 mm
00:24 1.4 °C -3.1 °C 1013.1 hPa WNW 9.2 km/h 22.2 km/h 72 % 0 mm
00:29 1.4 °C -3.3 °C 1013.1 hPa West 4.5 km/h 14.8 km/h 71 % 0 mm
00:34 1.4 °C -3.1 °C 1013.1 hPa WNW 11.3 km/h 20.4 km/h 72 % 0 mm
00:39 1.4 °C -3.3 °C 1013.1 hPa WNW 7.4 km/h 12.9 km/h 71 % 0 mm
00:44 1.3 °C -3.3 °C 1013.1 hPa WNW 5.8 km/h 18.5 km/h 71 % 0 mm
00:49 1.3 °C -3.3 °C 1013.1 hPa NW 8.4 km/h 13 km/h 71 % 0 mm
00:54 1.3 °C -3.6 °C 1013.1 hPa WNW 11.7 km/h 25.9 km/h 70 % 0 mm
00:59 1.3 °C -3.7 °C 1013.1 hPa NW 8.5 km/h 12.9 km/h 69 % 0 mm
01:04 1.3 °C -3.6 °C 1013.4 hPa NW 8.4 km/h 20.4 km/h 70 % 0 mm
01:09 1.3 °C -3.3 °C 1013.4 hPa NNW 5.5 km/h 11.3 km/h 71 % 0 mm
01:14 1.3 °C -3.6 °C 1013.1 hPa NNW 9.2 km/h 14.8 km/h 70 % 0 mm
01:19 1.3 °C -3.6 °C 1013.1 hPa NW 5.1 km/h 11.1 km/h 70 % 0 mm
01:24 1.3 °C -3.6 °C 1013.4 hPa WNW 3.2 km/h 6.4 km/h 70 % 0 mm
01:29 1.3 °C -3.6 °C 1013.4 hPa WNW 1.8 km/h 7.4 km/h 70 % 0 mm
01:34 1.3 °C -3.6 °C 1013.4 hPa West 5.8 km/h 13 km/h 70 % 0 mm
01:39 1.3 °C -3.6 °C 1013.4 hPa WNW 9.2 km/h 16.1 km/h 70 % 0 mm
01:44 1.3 °C -3.6 °C 1013.4 hPa NW 1.3 km/h 18.5 km/h 70 % 0 mm
01:49 1.3 °C -3.7 °C 1013.4 hPa WNW 5.6 km/h 13 km/h 69 % 0 mm
01:54 1.3 °C -3.6 °C 1013.4 hPa WNW 4 km/h 18.5 km/h 70 % 0 mm
01:59 1.3 °C -3.6 °C 1013.8 hPa NW 10.3 km/h 18.5 km/h 70 % 0 mm
02:04 1.3 °C -3.6 °C 1013.8 hPa NW 3.5 km/h 16.1 km/h 70 % 0 mm
02:09 1.2 °C -3.7 °C 1013.8 hPa NW 6.3 km/h 14.8 km/h 70 % 0 mm
02:14 1.2 °C -3.8 °C 1013.8 hPa NW 7.6 km/h 16.7 km/h 69 % 0 mm
02:19 1.2 °C -3.7 °C 1013.8 hPa NW 6.4 km/h 14.8 km/h 70 % 0 mm
02:24 1.2 °C -3.7 °C 1013.8 hPa NW 9.5 km/h 18.5 km/h 70 % 0 mm
02:29 1.2 °C -3.7 °C 1013.8 hPa West 5.5 km/h 9.7 km/h 70 % 0 mm
02:34 1.2 °C -3.7 °C 1014.1 hPa NW 9.5 km/h 14.8 km/h 70 % 0 mm
02:39 1.2 °C -3.7 °C 1013.8 hPa NW 10.9 km/h 18.5 km/h 70 % 0 mm
02:44 1.2 °C -3.8 °C 1014.1 hPa WNW 3.4 km/h 16.7 km/h 69 % 0 mm
02:49 1.2 °C -3.7 °C 1014.1 hPa WSW 9 km/h 20.4 km/h 70 % 0 mm
02:54 1.2 °C -3.4 °C 1014.1 hPa WNW 4.5 km/h 16.7 km/h 71 % 0 mm
02:59 1.2 °C -3.4 °C 1014.1 hPa NW 3.5 km/h 18.5 km/h 71 % 0 mm
03:04 1.2 °C -3.7 °C 1014.1 hPa NW 9.8 km/h 14.8 km/h 70 % 0 mm
03:09 1.2 °C -3.4 °C 1014.1 hPa NW 5.6 km/h 18.5 km/h 71 % 0 mm
03:14 1.2 °C -3.4 °C 1014.1 hPa NW 9.7 km/h 13 km/h 71 % 0 mm
03:19 1.2 °C -3.4 °C 1014.1 hPa WNW 5.1 km/h 16.7 km/h 71 % 0 mm
03:24 1.2 °C -3.7 °C 1014.1 hPa NW 8.4 km/h 16.7 km/h 70 % 0 mm
03:29 1.2 °C -3.4 °C 1014.1 hPa NW 11.3 km/h 18.5 km/h 71 % 0 mm
03:34 1.2 °C -3.4 °C 1014.1 hPa WNW 8.9 km/h 18.5 km/h 71 % 0 mm
03:39 1.2 °C -3.3 °C 1014.1 hPa WNW 4.2 km/h 13 km/h 72 % 0 mm
03:44 1.1 °C -3.6 °C 1014.1 hPa WNW 6.6 km/h 11.1 km/h 71 % 0 mm
03:49 1.1 °C -3.6 °C 1014.4 hPa West 7.2 km/h 13 km/h 71 % 0 mm
03:54 1.1 °C -3.4 °C 1014.4 hPa WNW 9.2 km/h 14.8 km/h 72 % 0 mm
03:59 1.1 °C -3.4 °C 1014.4 hPa WNW 5.1 km/h 13 km/h 72 % 0 mm
04:04 1.1 °C -3.4 °C 1014.4 hPa WNW 3.1 km/h 13 km/h 72 % 0 mm
04:09 1 °C -3.5 °C 1014.4 hPa NW 13.4 km/h 18.5 km/h 72 % 0 mm
04:14 1.1 °C -3.2 °C 1014.4 hPa NW 3.5 km/h 16.7 km/h 73 % 0 mm
04:19 1 °C -3.5 °C 1014.4 hPa WNW 12.7 km/h 19.3 km/h 72 % 0 mm
04:24 1.1 °C -3.2 °C 1014.4 hPa WNW 9.2 km/h 14.8 km/h 73 % 0 mm
04:29 1.1 °C -3.2 °C 1014.8 hPa WNW 9.8 km/h 20.4 km/h 73 % 0 mm
04:34 1.1 °C -3.4 °C 1014.8 hPa WNW 6.9 km/h 22.5 km/h 72 % 0 mm
04:39 1.1 °C -3.4 °C 1014.8 hPa NW 8.2 km/h 22.2 km/h 72 % 0 mm
04:44 1.1 °C -3.4 °C 1014.8 hPa NW 10.6 km/h 22.2 km/h 72 % 0 mm
04:49 1.1 °C -3.2 °C 1014.8 hPa WNW 11.3 km/h 16.7 km/h 73 % 0 mm
04:54 1.1 °C -3.4 °C 1014.8 hPa NNW 11.6 km/h 16.7 km/h 72 % 0 mm
04:59 1.1 °C -3.2 °C 1015.1 hPa NW 9.8 km/h 16.7 km/h 73 % 0 mm
05:04 1.2 °C -3.3 °C 1015.1 hPa WNW 7.4 km/h 14.8 km/h 72 % 0 mm
05:09 1.2 °C -3.2 °C 1015.1 hPa NW 5 km/h 18.5 km/h 73 % 0 mm
05:14 1.2 °C -3.2 °C 1015.1 hPa WNW 6.4 km/h 22.2 km/h 73 % 0 mm
05:19 1.2 °C -3.2 °C 1015.1 hPa WNW 10.5 km/h 13 km/h 73 % 0 mm
05:24 1.2 °C -3.2 °C 1015.1 hPa NW 6.6 km/h 11.3 km/h 73 % 0 mm
05:29 1.2 °C -3.2 °C 1015.5 hPa NW 13.7 km/h 20.9 km/h 73 % 0 mm
05:34 1.2 °C -3.2 °C 1015.5 hPa WNW 6.1 km/h 11.3 km/h 73 % 0 mm
05:39 1.2 °C -3.2 °C 1015.5 hPa WNW 0.5 km/h 11.1 km/h 73 % 0 mm
05:44 1.2 °C -3.2 °C 1015.5 hPa NW 9.7 km/h 16.7 km/h 73 % 0 mm
05:49 1.2 °C -2.9 °C 1015.8 hPa NW 6.6 km/h 14.8 km/h 74 % 0 mm
05:54 1.2 °C -2.9 °C 1015.8 hPa WNW 10 km/h 13 km/h 74 % 0 mm
05:59 1.2 °C -2.9 °C 1015.8 hPa WNW 9.8 km/h 12.9 km/h 74 % 0 mm
06:04 1.2 °C -2.9 °C 1015.8 hPa WNW 2.9 km/h 11.1 km/h 74 % 0 mm
06:09 1.2 °C -2.9 °C 1015.8 hPa NW 4.5 km/h 11.1 km/h 74 % 0 mm
06:14 1.1 °C -3 °C 1016.1 hPa WNW 15.3 km/h 17.7 km/h 74 % 0 mm
06:19 1.1 °C -3 °C 1016.1 hPa WNW 4.7 km/h 16.1 km/h 74 % 0 mm
06:24 1.1 °C -3 °C 1016.5 hPa West 6.9 km/h 14.8 km/h 74 % 0 mm
06:29 1.1 °C -2.8 °C 1016.5 hPa NNW 8.7 km/h 11.1 km/h 75 % 0 mm
06:34 1.1 °C -2.9 °C 1016.5 hPa WNW 6.3 km/h 13 km/h 75 % 0 mm
06:39 1.1 °C -2.8 °C 1016.5 hPa NW 6 km/h 18.5 km/h 75 % 0 mm
06:44 1.1 °C -2.9 °C 1016.5 hPa WNW 9 km/h 18.5 km/h 75 % 0 mm
06:49 1.1 °C -2.9 °C 1016.5 hPa NW 4 km/h 9.3 km/h 75 % 0 mm
06:54 1.1 °C -2.9 °C 1016.5 hPa WNW 8 km/h 18.5 km/h 75 % 0 mm
06:59 1.1 °C -2.9 °C 1016.5 hPa NNW 6.9 km/h 24.1 km/h 75 % 0 mm
07:04 1.1 °C -2.7 °C 1016.8 hPa WNW 6 km/h 18.5 km/h 76 % 0 mm
07:09 1.1 °C -2.7 °C 1016.8 hPa NNW 5.5 km/h 11.1 km/h 76 % 0 mm
07:14 1.1 °C -2.7 °C 1016.8 hPa NW 5.8 km/h 16.7 km/h 76 % 0 mm
07:19 1.1 °C -2.7 °C 1016.8 hPa NW 9.5 km/h 20.4 km/h 76 % 0 mm
07:24 1.1 °C -2.7 °C 1016.8 hPa NW 3.9 km/h 16.7 km/h 76 % 0 mm
07:29 1.1 °C -2.7 °C 1016.8 hPa WNW 7.6 km/h 14.8 km/h 76 % 0 mm
07:34 1.1 °C -2.7 °C 1017.2 hPa NNW 7.7 km/h 11.1 km/h 76 % 0 mm
07:39 1.1 °C -2.8 °C 1017.2 hPa NNW 6.8 km/h 9.3 km/h 75 % 0 mm
07:44 1.2 °C -2.6 °C 1017.2 hPa WNW 6.6 km/h 13 km/h 76 % 0 mm
07:49 1.2 °C -2.6 °C 1017.2 hPa NW 4.3 km/h 13 km/h 76 % 0 mm
07:54 1.2 °C -2.7 °C 1017.5 hPa WNW 4.2 km/h 8 km/h 75 % 0 mm
07:59 1.2 °C -2.6 °C 1017.5 hPa NW 5.8 km/h 14.8 km/h 76 % 0 mm
08:04 1.2 °C -2.7 °C 1017.5 hPa NNW 6.4 km/h 9.3 km/h 75 % 0 mm
08:09 1.3 °C -2.5 °C 1017.5 hPa NW 2.7 km/h 9.3 km/h 76 % 0 mm
08:14 1.3 °C -2.6 °C 1017.8 hPa WNW 5 km/h 8 km/h 75 % 0 mm
08:19 1.3 °C -2.6 °C 1017.8 hPa WNW 9 km/h 12.9 km/h 75 % 0 mm
08:24 1.4 °C -2.5 °C 1017.8 hPa WNW 2.1 km/h 9.7 km/h 75 % 0 mm
08:29 1.5 °C -2.4 °C 1018.2 hPa WNW 4.3 km/h 14.5 km/h 75 % 0 mm
08:34 1.6 °C -2.6 °C 1018.2 hPa North 2.9 km/h 9.3 km/h 74 % 0 mm
08:39 1.6 °C -2.5 °C 1018.5 hPa NNW 4.8 km/h 7.4 km/h 74 % 0 mm
08:44 1.7 °C -2.2 °C 1018.5 hPa NW 10 km/h 18.5 km/h 75 % 0 mm
08:49 1.8 °C -2.4 °C 1018.2 hPa NW 6.3 km/h 9.3 km/h 74 % 0 mm
08:54 1.8 °C -2.5 °C 1018.5 hPa WNW 6.3 km/h 14.5 km/h 73 % 0 mm
08:59 1.9 °C -2.4 °C 1018.5 hPa WNW 7.2 km/h 18.5 km/h 73 % 0 mm
09:04 2 °C -2.3 °C 1018.8 hPa WNW 9.2 km/h 14.5 km/h 73 % 0 mm
09:09 2.1 °C -2.2 °C 1018.8 hPa North 5.1 km/h 11.3 km/h 73 % 0 mm
09:14 2.2 °C -2.1 °C 1018.8 hPa WNW 9 km/h 16.7 km/h 73 % 0 mm
09:19 2.3 °C -2.3 °C 1018.8 hPa NW 5.1 km/h 11.1 km/h 72 % 0 mm
09:24 2.4 °C -2.2 °C 1018.8 hPa WNW 6.8 km/h 14.8 km/h 72 % 0 mm
09:29 2.4 °C -2.1 °C 1019.2 hPa NW 5 km/h 7.4 km/h 72 % 0 mm
09:34 2.6 °C -2.2 °C 1019.2 hPa NW 4.5 km/h 13 km/h 71 % 0 mm
09:39 2.7 °C -2.1 °C 1019.5 hPa WNW 6.6 km/h 9.7 km/h 71 % 0 mm
09:44 2.7 °C -2 °C 1019.5 hPa NW 6.1 km/h 11.1 km/h 71 % 0 mm
09:49 2.8 °C -2.1 °C 1019.5 hPa NW 5 km/h 9.3 km/h 70 % 0 mm
09:54 2.9 °C -2 °C 1019.5 hPa NNW 4.3 km/h 11.1 km/h 70 % 0 mm
09:59 3.1 °C -1.9 °C 1019.5 hPa WNW 5.1 km/h 14.8 km/h 70 % 0 mm
10:04 3.2 °C -2 °C 1019.5 hPa NNW 5.8 km/h 11.3 km/h 69 % 0 mm
10:09 3.3 °C -1.9 °C 1019.5 hPa NW 7.1 km/h 9.3 km/h 69 % 0 mm
10:14 3.4 °C -1.9 °C 1019.5 hPa NW 1.9 km/h 7.4 km/h 68 % 0 mm
10:19 3.5 °C -1.8 °C 1019.5 hPa NW 0.3 km/h 5.6 km/h 68 % 0 mm
10:24 3.6 °C -1.7 °C 1019.5 hPa NW 1.9 km/h 8 km/h 68 % 0 mm
10:29 3.8 °C -1.8 °C 1019.5 hPa NNW 1.8 km/h 3.7 km/h 67 % 0 mm
10:34 3.8 °C -1.8 °C 1019.2 hPa NNW 2.9 km/h 5.6 km/h 67 % 0 mm
10:39 3.9 °C -1.7 °C 1019.5 hPa North 6 km/h 11.3 km/h 67 % 0 mm
10:44 3.9 °C -2.1 °C 1019.5 hPa NNW 5.6 km/h 7.4 km/h 65 % 0 mm
10:49 3.9 °C -1.8 °C 1019.5 hPa NNW 1 km/h 7.4 km/h 66 % 0 mm
10:54 4 °C -1.8 °C 1019.5 hPa WNW 4.3 km/h 8 km/h 66 % 0 mm
10:59 4 °C -1.8 °C 1019.2 hPa NNW 3.4 km/h 9.3 km/h 66 % 0 mm
Crab Meadow Weather
Compliments of Weather Underground - 2 mb

Script developed by  Jim McMurry - jmcmurry@mwt.net Adapted for the template by  Wim van der Kuil - Leuven-Template.eu

Weather Terms: Relative Humidity - The ratio of the amount of water vapor actually present in the air to the greatest amount possible at the same temperature.